TimeEST,TemperatureF,Dew PointF,Humidity,Sea Level PressureIn,VisibilityMPH,Wind Direction,Wind SpeedMPH,Gust SpeedMPH,PrecipitationIn,Events,Conditions,WindDirDegrees,DateUTC
12:15 AM,43.2,36.5,77,30.04,10.0,SW,5.8,-,N/A,,Overcast,220,2012-11-09 05:15:00
12:35 AM,43.2,36.5,77,30.04,10.0,SSW,4.6,-,N/A,,Overcast,210,2012-11-09 05:35:00
12:55 AM,42.8,36.5,78,30.04,10.0,SW,4.6,-,N/A,,Mostly Cloudy,220,2012-11-09 05:55:00
1:15 AM,42.3,36.5,80,30.04,10.0,SSW,4.6,-,N/A,,Mostly Cloudy,210,2012-11-09 06:15:00
1:36 AM,41.0,36.1,83,30.04,7.0,SSW,3.5,-,N/A,,Scattered Clouds,210,2012-11-09 06:36:00
1:55 AM,40.6,36.1,84,30.05,7.0,SSW,4.6,-,N/A,,Scattered Clouds,200,2012-11-09 06:55:00
2:15 AM,41.7,37.0,83,30.05,7.0,SSW,4.6,-,N/A,,Overcast,210,2012-11-09 07:15:00
2:35 AM,42.4,37.4,82,30.05,7.0,SSW,4.6,-,N/A,,Overcast,200,2012-11-09 07:35:00
2:55 AM,42.8,37.6,82,30.05,7.0,SSW,3.5,-,N/A,,Overcast,200,2012-11-09 07:55:00
3:15 AM,43.0,37.9,82,30.05,7.0,SSW,3.5,-,N/A,,Overcast,200,2012-11-09 08:15:00
3:35 AM,43.5,38.3,82,30.05,7.0,SSW,5.8,-,N/A,,Overcast,210,2012-11-09 08:35:00
3:55 AM,43.7,38.3,81,30.05,7.0,SSW,5.8,-,N/A,,Overcast,210,2012-11-09 08:55:00
4:15 AM,43.7,38.3,81,30.06,7.0,SW,4.6,-,N/A,,Overcast,220,2012-11-09 09:15:00
4:35 AM,43.7,38.3,81,30.06,7.0,SSW,5.8,-,N/A,,Overcast,210,2012-11-09 09:35:00
4:55 AM,43.9,38.3,81,30.07,7.0,SW,4.6,-,N/A,,Overcast,220,2012-11-09 09:55:00
5:15 AM,43.9,38.3,81,30.07,7.0,SW,3.5,-,N/A,,Overcast,220,2012-11-09 10:15:00
5:35 AM,43.5,38.3,82,30.07,7.0,SW,3.5,-,N/A,,Overcast,220,2012-11-09 10:35:00
5:55 AM,43.0,38.3,84,30.07,7.0,SSW,3.5,-,N/A,,Overcast,210,2012-11-09 10:55:00
6:15 AM,42.8,38.3,84,30.07,7.0,SSW,3.5,-,N/A,,Overcast,210,2012-11-09 11:15:00
6:35 AM,43.0,38.5,84,30.08,7.0,Calm,Calm,-,N/A,,Overcast,0,2012-11-09 11:35:00
6:55 AM,42.8,38.7,85,30.08,7.0,Calm,Calm,-,N/A,,Overcast,0,2012-11-09 11:55:00
7:15 AM,43.0,38.7,85,30.08,7.0,SW,3.5,-,N/A,,Overcast,220,2012-11-09 12:15:00
7:35 AM,43.0,38.7,85,30.08,5.0,SSW,3.5,-,N/A,,Overcast,210,2012-11-09 12:35:00
7:55 AM,43.0,38.7,85,30.09,5.0,SW,3.5,-,N/A,,Overcast,220,2012-11-09 12:55:00
8:15 AM,43.0,38.8,85,30.10,5.0,Calm,Calm,-,N/A,,Overcast,0,2012-11-09 13:15:00
8:35 AM,43.2,39.2,86,30.10,5.0,Calm,Calm,-,N/A,,Overcast,0,2012-11-09 13:35:00
8:55 AM,44.1,39.6,84,30.10,5.0,Calm,Calm,-,N/A,,Overcast,0,2012-11-09 13:55:00
9:15 AM,44.6,39.4,82,30.10,5.0,WSW,3.5,-,N/A,,Haze,240,2012-11-09 14:15:00
9:35 AM,45.3,39.2,79,30.10,7.0,WSW,3.5,-,N/A,,Overcast,250,2012-11-09 14:35:00
9:55 AM,45.9,39.4,78,30.10,7.0,West,3.5,-,N/A,,Overcast,260,2012-11-09 14:55:00
10:15 AM,46.4,39.2,76,30.10,10.0,WNW,4.6,-,N/A,,Overcast,290,2012-11-09 15:15:00
10:35 AM,46.9,39.4,75,30.11,10.0,West,3.5,-,N/A,,Overcast,260,2012-11-09 15:35:00
10:55 AM,47.5,39.2,73,30.12,10.0,WNW,3.5,-,N/A,,Overcast,290,2012-11-09 15:55:00
11:16 AM,48.4,39.2,71,30.12,10.0,West,3.5,-,N/A,,Mostly Cloudy,280,2012-11-09 16:16:00
11:35 AM,49.1,38.5,67,30.11,10.0,NNW,3.5,-,N/A,,Mostly Cloudy,330,2012-11-09 16:35:00
11:55 AM,48.7,38.1,67,30.11,10.0,Calm,Calm,-,N/A,,Mostly Cloudy,0,2012-11-09 16:55:00
12:15 PM,49.1,40.3,72,30.10,10.0,North,6.9,-,N/A,,Overcast,360,2012-11-09 17:15:00
12:35 PM,47.5,40.1,76,30.10,10.0,North,8.1,-,N/A,,Overcast,360,2012-11-09 17:35:00
12:56 PM,47.3,40.1,76,30.10,10.0,North,8.1,-,N/A,,Overcast,360,2012-11-09 17:56:00
1:15 PM,47.3,39.7,75,30.10,10.0,NNW,6.9,-,N/A,,Overcast,340,2012-11-09 18:15:00
1:35 PM,46.8,38.8,74,30.10,10.0,North,6.9,-,N/A,,Overcast,350,2012-11-09 18:35:00
1:55 PM,46.6,39.0,75,30.09,10.0,NNW,4.6,-,N/A,,Overcast,340,2012-11-09 18:55:00
2:15 PM,46.9,38.7,73,30.09,10.0,NNW,4.6,-,N/A,,Overcast,330,2012-11-09 19:15:00
2:35 PM,46.9,38.1,71,30.09,10.0,North,4.6,-,N/A,,Overcast,350,2012-11-09 19:35:00
2:55 PM,47.1,38.7,72,30.09,10.0,North,5.8,-,N/A,,Overcast,360,2012-11-09 19:55:00
3:16 PM,46.0,39.2,77,30.09,7.0,North,3.5,-,N/A,,Overcast,360,2012-11-09 20:16:00
3:35 PM,45.7,39.6,79,30.09,7.0,North,4.6,-,N/A,,Overcast,350,2012-11-09 20:35:00
3:55 PM,45.7,39.2,78,30.10,10.0,Calm,Calm,-,N/A,,Overcast,0,2012-11-09 20:55:00
4:16 PM,45.7,39.4,79,30.10,10.0,Calm,Calm,-,N/A,,Overcast,0,2012-11-09 21:16:00
4:35 PM,45.5,40.1,81,30.10,10.0,Calm,Calm,-,N/A,,Overcast,0,2012-11-09 21:35:00
4:55 PM,45.1,40.1,82,30.10,10.0,Calm,Calm,-,N/A,,Overcast,0,2012-11-09 21:55:00
5:15 PM,45.0,40.3,84,30.10,10.0,NW,3.5,-,N/A,,Overcast,320,2012-11-09 22:15:00
5:35 PM,44.8,40.1,84,30.11,10.0,Calm,Calm,-,N/A,,Overcast,0,2012-11-09 22:35:00
5:55 PM,44.8,40.1,84,30.12,10.0,Calm,Calm,-,N/A,,Overcast,0,2012-11-09 22:55:00
6:15 PM,44.6,40.1,84,30.12,10.0,Calm,Calm,-,N/A,,Overcast,0,2012-11-09 23:15:00
6:35 PM,44.6,39.9,84,30.13,10.0,Calm,Calm,-,N/A,,Overcast,0,2012-11-09 23:35:00
6:56 PM,44.6,39.7,83,30.13,10.0,Calm,Calm,-,N/A,,Overcast,0,2012-11-09 23:56:00
7:15 PM,43.9,39.6,85,30.14,10.0,Calm,Calm,-,N/A,,Overcast,0,2012-11-10 00:15:00
7:35 PM,43.9,39.6,85,30.14,10.0,North,3.5,-,N/A,,Overcast,350,2012-11-10 00:35:00
7:55 PM,44.6,39.7,83,30.14,10.0,North,3.5,-,N/A,,Overcast,360,2012-11-10 00:55:00
8:15 PM,44.6,39.6,82,30.14,10.0,North,3.5,-,N/A,,Overcast,10,2012-11-10 01:15:00
8:35 PM,44.8,39.2,81,30.14,10.0,NNE,4.6,-,N/A,,Overcast,20,2012-11-10 01:35:00
8:55 PM,44.8,39.0,80,30.15,10.0,NNE,3.5,-,N/A,,Overcast,20,2012-11-10 01:55:00
9:14 PM,44.6,39.2,81,30.15,10.0,Calm,Calm,-,N/A,,Overcast,0,2012-11-10 02:14:00
9:36 PM,44.2,39.2,82,30.15,10.0,NNE,3.5,-,N/A,,Overcast,20,2012-11-10 02:36:00
9:55 PM,44.6,38.8,80,30.15,10.0,NNE,3.5,-,N/A,,Overcast,30,2012-11-10 02:55:00
10:15 PM,44.1,38.7,81,30.15,10.0,Calm,Calm,-,N/A,,Overcast,0,2012-11-10 03:15:00
10:36 PM,44.1,38.8,82,30.15,10.0,North,3.5,-,N/A,,Overcast,10,2012-11-10 03:36:00
10:55 PM,44.1,39.2,83,30.15,10.0,Calm,Calm,-,N/A,,Overcast,0,2012-11-10 03:55:00
11:15 PM,44.1,39.2,83,30.15,10.0,Calm,Calm,-,N/A,,Overcast,0,2012-11-10 04:15:00
11:35 PM,44.1,39.6,84,30.15,10.0,Calm,Calm,-,N/A,,Overcast,0,2012-11-10 04:35:00